• en France
  • Liste des pays
  • À 7 jours
  • Température de l'eau
  • Carte satellitaire
  • Carte météo
  • Widgets météo
  • user-avatar
    Se connecter

    Météo par heure à Abidzhan

    Ce jour, 22 Octobre, Lundi

    Heure Température Précipitation Vent Pression Humidité
    00:00 +27°C° 0 mm 2 m/s 754 mmHg 91%
    01:00 +27°C° 1.5 mm 3 m/s 754 mmHg 91%
    02:00 +27°C° 1.5 mm 3 m/s 753 mmHg 91%
    03:00 +26°C° 1.5 mm 3 m/s 753 mmHg 91%
    04:00 +26°C° 0.8 mm 3 m/s 753 mmHg 91%
    05:00 +26°C° 0.8 mm 2 m/s 754 mmHg 92%
    06:00 +26°C° 0.8 mm 2 m/s 754 mmHg 92%
    07:00 +27°C° 0 mm 2 m/s 754 mmHg 87%
    08:00 +29°C° 0 mm 3 m/s 755 mmHg 81%
    09:00 +30°C° 0 mm 3 m/s 755 mmHg 75%
    10:00 +33°C° 0 mm 3 m/s 755 mmHg 68%
    11:00 +34°C° 0 mm 3 m/s 754 mmHg 62%
    12:00 +35°C° 0 mm 3 m/s 754 mmHg 55%
    13:00 +35°C° 0.5 mm 3 m/s 754 mmHg 58%
    14:00 +35°C° 0.5 mm 4 m/s 753 mmHg 60%
    15:00 +34°C° 0.5 mm 4 m/s 753 mmHg 63%
    16:00 +33°C° 0.2 mm 4 m/s 753 mmHg 69%
    17:00 +30°C° 0.2 mm 4 m/s 753 mmHg 74%
    18:00 +29°C° 0.2 mm 4 m/s 754 mmHg 80%
    19:00 +28°C° 0.3 mm 3 m/s 755 mmHg 82%
    20:00 +28°C° 0.3 mm 3 m/s 755 mmHg 84%
    21:00 +28°C° 0.3 mm 3 m/s 756 mmHg 85%
    22:00 +27°C° 0.6 mm 3 m/s 756 mmHg 86%
    23:00 +27°C° 0.6 mm 3 m/s 755 mmHg 88%

    Demain, 23 Octobre, Mardi

    Heure Température Précipitation Vent Pression Humidité
    00:00 +27°C° 0.6 mm 3 m/s 755 mmHg 89%
    01:00 +27°C° 0 mm 3 m/s 755 mmHg 90%
    02:00 +27°C° 0 mm 3 m/s 755 mmHg 90%
    03:00 +26°C° 0 mm 3 m/s 754 mmHg 91%
    04:00 +26°C° 0 mm 3 m/s 754 mmHg 92%
    05:00 +26°C° 0 mm 3 m/s 754 mmHg 92%
    06:00 +26°C° 0 mm 3 m/s 754 mmHg 93%
    07:00 +28°C° 0 mm 3 m/s 755 mmHg 85%
    08:00 +29°C° 0 mm 3 m/s 755 mmHg 77%
    09:00 +31°C° 0 mm 3 m/s 756 mmHg 69%
    10:00 +34°C° 0 mm 3 m/s 755 mmHg 63%
    11:00 +35°C° 0 mm 4 m/s 755 mmHg 57%
    12:00 +37°C° 0 mm 4 m/s 755 mmHg 51%
    13:00 +36°C° 0.1 mm 4 m/s 754 mmHg 55%
    14:00 +35°C° 0.1 mm 4 m/s 753 mmHg 58%
    15:00 +35°C° 0.1 mm 4 m/s 753 mmHg 62%
    16:00 +33°C° 0.2 mm 4 m/s 753 mmHg 68%
    17:00 +32°C° 0.2 mm 4 m/s 753 mmHg 74%
    18:00 +29°C° 0.2 mm 4 m/s 754 mmHg 81%
    19:00 +29°C° 0 mm 4 m/s 754 mmHg 83%
    20:00 +28°C° 0 mm 3 m/s 755 mmHg 86%
    21:00 +28°C° 0 mm 3 m/s 755 mmHg 88%
    22:00 +28°C° 0 mm 3 m/s 755 mmHg 89%
    23:00 +27°C° 0 mm 3 m/s 755 mmHg 90%

    Après-demain, 24 Octobre, Mercredi

    Heure Température Précipitation Vent Pression Humidité
    00:00 +27°C° 0 mm 3 m/s 755 mmHg 91%
    01:00 +27°C° 0.1 mm 3 m/s 755 mmHg 92%
    02:00 +27°C° 0.1 mm 3 m/s 754 mmHg 92%
    03:00 +27°C° 0.1 mm 3 m/s 754 mmHg 93%
    04:00 +27°C° 0 mm 3 m/s 754 mmHg 93%
    05:00 +27°C° 0 mm 3 m/s 754 mmHg 94%
    06:00 +27°C° 0 mm 3 m/s 754 mmHg 94%
    07:00 +28°C° 0 mm 3 m/s 755 mmHg 88%
    08:00 +29°C° 0 mm 3 m/s 755 mmHg 81%
    09:00 +32°C° 0 mm 4 m/s 755 mmHg 74%
    10:00 +33°C° 0.2 mm 4 m/s 755 mmHg 72%
    11:00 +33°C° 0.2 mm 4 m/s 755 mmHg 69%
    12:00 +34°C° 0.2 mm 4 m/s 754 mmHg 66%
    13:00 +34°C° 0.1 mm 4 m/s 754 mmHg 66%
    14:00 +34°C° 0.1 mm 4 m/s 753 mmHg 65%
    15:00 +34°C° 0.1 mm 4 m/s 752 mmHg 64%
    16:00 +33°C° 0 mm 4 m/s 753 mmHg 69%
    17:00 +30°C° 0 mm 4 m/s 753 mmHg 75%
    18:00 +29°C° 0 mm 4 m/s 753 mmHg 80%
    19:00 +29°C° 0 mm 3 m/s 754 mmHg 83%
    20:00 +28°C° 0 mm 3 m/s 754 mmHg 86%
    21:00 +28°C° 0 mm 3 m/s 755 mmHg 89%
    22:00 +27°C° 0.2 mm 2 m/s 755 mmHg 90%
    23:00 +27°C° 0.2 mm 2 m/s 755 mmHg 91%

    25 Octobre, Jeudi

    Heure Température Précipitation Vent Pression Humidité
    00:00 +27°C° 0.2 mm 2 m/s 755 mmHg 93%
    01:00 +27°C° 0.2 mm 2 m/s 754 mmHg 93%
    02:00 +26°C° 0.2 mm 2 m/s 754 mmHg 94%
    03:00 +26°C° 0.2 mm 2 m/s 753 mmHg 94%
    04:00 +26°C° 0.2 mm 1 m/s 754 mmHg 94%
    05:00 +26°C° 0.2 mm 1 m/s 754 mmHg 95%
    06:00 +26°C° 0.2 mm 1 m/s 754 mmHg 95%
    07:00 +28°C° 0.1 mm 1 m/s 754 mmHg 87%
    08:00 +29°C° 0.1 mm 1 m/s 755 mmHg 79%
    09:00 +31°C° 0.1 mm 2 m/s 755 mmHg 71%
    10:00 +32°C° 0 mm 2 m/s 755 mmHg 64%
    11:00 +35°C° 0 mm 2 m/s 754 mmHg 57%
    12:00 +36°C° 0 mm 3 m/s 754 mmHg 50%
    13:00 +36°C° 0 mm 3 m/s 753 mmHg 50%
    14:00 +36°C° 0 mm 3 m/s 752 mmHg 50%
    15:00 +36°C° 0 mm 3 m/s 752 mmHg 51%
    16:00 +34°C° 0 mm 3 m/s 752 mmHg 59%
    17:00 +31°C° 0 mm 3 m/s 752 mmHg 66%
    18:00 +30°C° 0 mm 3 m/s 752 mmHg 74%
    19:00 +29°C° 0.1 mm 3 m/s 753 mmHg 78%
    20:00 +28°C° 0.1 mm 3 m/s 754 mmHg 82%
    21:00 +27°C° 0.1 mm 2 m/s 754 mmHg 86%
    22:00 +27°C° 0 mm 3 m/s 754 mmHg 88%
    23:00 +27°C° 0 mm 3 m/s 754 mmHg 89%

    26 Octobre, Vendredi

    Heure Température Précipitation Vent Pression Humidité
    00:00 +27°C° 0 mm 3 m/s 754 mmHg 90%
    01:00 +27°C° 0 mm 2 m/s 754 mmHg 90%
    02:00 +27°C° 0 mm 2 m/s 753 mmHg 91%
    03:00 +27°C° 0 mm 2 m/s 753 mmHg 92%
    04:00 +26°C° 0.2 mm 2 m/s 753 mmHg 92%
    05:00 +26°C° 0.2 mm 2 m/s 754 mmHg 93%
    06:00 +26°C° 0.2 mm 1 m/s 754 mmHg 94%
    07:00 +28°C° 0 mm 2 m/s 754 mmHg 86%
    08:00 +30°C° 0 mm 2 m/s 755 mmHg 78%
    09:00 +31°C° 0 mm 2 m/s 755 mmHg 69%
    10:00 +32°C° 0 mm 2 m/s 755 mmHg 67%
    11:00 +32°C° 0 mm 2 m/s 754 mmHg 65%
    12:00 +34°C° 0 mm 3 m/s 754 mmHg 62%
    13:00 +34°C° 0.1 mm 3 m/s 753 mmHg 63%
    14:00 +34°C° 0.1 mm 3 m/s 752 mmHg 63%
    15:00 +34°C° 0.1 mm 4 m/s 752 mmHg 63%
    16:00 +32°C° 0.1 mm 4 m/s 752 mmHg 69%
    17:00 +30°C° 0.1 mm 3 m/s 753 mmHg 75%
    18:00 +29°C° 0.1 mm 3 m/s 753 mmHg 80%
    19:00 +29°C° 0 mm 3 m/s 754 mmHg 83%
    20:00 +28°C° 0 mm 3 m/s 754 mmHg 86%
    21:00 +28°C° 0 mm 3 m/s 755 mmHg 88%
    22:00 +27°C° 0 mm 3 m/s 755 mmHg 90%
    23:00 +27°C° 0 mm 3 m/s 754 mmHg 91%

    27 Octobre, Samedi

    Heure Température Précipitation Vent Pression Humidité
    00:00 +27°C° 0 mm 3 m/s 754 mmHg 92%
    01:00 +27°C° 0.4 mm 3 m/s 754 mmHg 93%
    02:00 +26°C° 0.4 mm 2 m/s 754 mmHg 94%
    03:00 +26°C° 0.4 mm 2 m/s 753 mmHg 95%
    04:00 +26°C° 0.2 mm 2 m/s 754 mmHg 95%
    05:00 +26°C° 0.2 mm 2 m/s 754 mmHg 95%
    06:00 +26°C° 0.2 mm 2 m/s 755 mmHg 95%
    07:00 +28°C° 0 mm 2 m/s 755 mmHg 88%
    08:00 +29°C° 0 mm 2 m/s 755 mmHg 82%
    09:00 +31°C° 0 mm 3 m/s 756 mmHg 75%
    10:00 +31°C° 0 mm 3 m/s 755 mmHg 71%
    11:00 +33°C° 0 mm 3 m/s 754 mmHg 67%
    12:00 +34°C° 0 mm 3 m/s 754 mmHg 63%
    13:00 +34°C° 0.2 mm 3 m/s 753 mmHg 63%
    14:00 +34°C° 0.2 mm 4 m/s 753 mmHg 62%
    15:00 +34°C° 0.2 mm 4 m/s 752 mmHg 62%
    16:00 +33°C° 0.1 mm 3 m/s 752 mmHg 68%
    17:00 +30°C° 0.1 mm 3 m/s 753 mmHg 74%
    18:00 +29°C° 0.1 mm 3 m/s 753 mmHg 80%
    19:00 +29°C° 0 mm 3 m/s 754 mmHg 82%
    20:00 +28°C° 0 mm 2 m/s 755 mmHg 85%
    21:00 +28°C° 0 mm 2 m/s 755 mmHg 87%
    22:00 +27°C° 0.2 mm 2 m/s 755 mmHg 88%
    23:00 +27°C° 0.2 mm 2 m/s 755 mmHg 89%

    28 Octobre, Dimanche

    Heure Température Précipitation Vent Pression Humidité
    00:00 +27°C° 0.2 mm 2 m/s 755 mmHg 90%
    01:00 +27°C° 1 mm 2 m/s 754 mmHg 91%
    02:00 +26°C° 1 mm 2 m/s 754 mmHg 92%
    03:00 +26°C° 1 mm 2 m/s 753 mmHg 93%
    04:00 +26°C° 0.3 mm 2 m/s 754 mmHg 93%
    05:00 +26°C° 0.3 mm 2 m/s 754 mmHg 93%
    06:00 +26°C° 0.3 mm 1 m/s 755 mmHg 93%
    07:00 +28°C° 0.3 mm 1 m/s 755 mmHg 86%
    08:00 +29°C° 0.3 mm 2 m/s 756 mmHg 79%
    09:00 +31°C° 0.3 mm 2 m/s 756 mmHg 72%
    10:00 +32°C° 0.4 mm 2 m/s 755 mmHg 67%
    11:00 +34°C° 0.4 mm 2 m/s 755 mmHg 63%
    12:00 +35°C° 0.4 mm 2 m/s 754 mmHg 58%
    13:00 +35°C° 0.1 mm 3 m/s 754 mmHg 58%
    14:00 +35°C° 0.1 mm 3 m/s 753 mmHg 58%
    15:00 +35°C° 0.1 mm 3 m/s 753 mmHg 58%
    16:00 +33°C° 0.1 mm 3 m/s 753 mmHg 64%
    17:00 +31°C° 0.1 mm 3 m/s 754 mmHg 70%
    18:00 +29°C° 0.1 mm 3 m/s 754 mmHg 77%
    19:00 +29°C° 0.2 mm 3 m/s 755 mmHg 79%
    20:00 +28°C° 0.2 mm 3 m/s 755 mmHg 82%
    21:00 +28°C° 0.2 mm 2 m/s 756 mmHg 85%
    22:00 +27°C° 0.2 mm 2 m/s 755 mmHg 86%
    23:00 +27°C° 0.2 mm 3 m/s 755 mmHg 88%
    Voir plus